When you browse on this site, cookies collect data to enhance your experience and personalize the content and advertising you see.
Visit our Privacy Policy to learn more. By continuing to use the site, you agree to this use of cookies and data.
  • In Spain
  • List of Countries
  • For 7 days
  • Water Temperature
  • Weather Map
  • Weather Widgets
  • user-avatar
    Login

    Hourly Weather Nueva Imperial

    Today, 19 February, Wednesday

    Time Temperature Precipitation Wind Pressure Humidity
    00:00 +12°C° 0 mm 1 mps 757 mmHg 96%
    01:00 +12°C° 0 mm 1 mps 757 mmHg 97%
    02:00 +11°C° 0 mm 1 mps 757 mmHg 97%
    03:00 +11°C° 0 mm 1 mps 757 mmHg 97%
    04:00 +11°C° 0 mm 1 mps 757 mmHg 97%
    05:00 +12°C° 0 mm 1 mps 758 mmHg 92%
    06:00 +13°C° 0 mm 1 mps 758 mmHg 87%
    07:00 +14°C° 0 mm 1 mps 758 mmHg 81%
    08:00 +16°C° 0 mm 2 mps 758 mmHg 65%
    09:00 +18°C° 0 mm 2 mps 758 mmHg 50%
    10:00 +21°C° 0 mm 3 mps 758 mmHg 34%
    11:00 +22°C° 0 mm 3 mps 758 mmHg 31%
    12:00 +23°C° 0 mm 4 mps 758 mmHg 29%
    13:00 +25°C° 0 mm 4 mps 757 mmHg 27%
    14:00 +23°C° 0 mm 5 mps 757 mmHg 31%
    15:00 +22°C° 0 mm 5 mps 757 mmHg 36%
    16:00 +21°C° 0 mm 5 mps 757 mmHg 40%
    17:00 +19°C° 0 mm 4 mps 757 mmHg 49%
    18:00 +17°C° 0 mm 3 mps 757 mmHg 59%
    19:00 +15°C° 0 mm 2 mps 758 mmHg 68%
    20:00 +14°C° 0 mm 2 mps 758 mmHg 66%
    21:00 +13°C° 0 mm 2 mps 758 mmHg 64%
    22:00 +12°C° 0 mm 2 mps 758 mmHg 62%
    23:00 +11°C° 0 mm 1 mps 758 mmHg 61%

    Tomorrow, 20 February, Thursday

    Time Temperature Precipitation Wind Pressure Humidity
    00:00 +10°C° 0 mm 1 mps 757 mmHg 61%
    01:00 +9°C° 0 mm 1 mps 757 mmHg 60%
    02:00 +8°C° 0 mm 1 mps 757 mmHg 64%
    03:00 +8°C° 0 mm 1 mps 756 mmHg 67%
    04:00 +6°C° 0 mm 0 mps 756 mmHg 71%
    05:00 +9°C° 0 mm 1 mps 756 mmHg 68%
    06:00 +10°C° 0 mm 1 mps 756 mmHg 64%
    07:00 +11°C° 0 mm 1 mps 756 mmHg 60%
    08:00 +16°C° 0 mm 1 mps 756 mmHg 49%
    09:00 +21°C° 0 mm 1 mps 755 mmHg 38%
    10:00 +25°C° 0 mm 2 mps 755 mmHg 26%
    11:00 +28°C° 0 mm 2 mps 755 mmHg 22%
    12:00 +31°C° 0 mm 2 mps 755 mmHg 18%
    13:00 +35°C° 0 mm 3 mps 754 mmHg 14%
    14:00 +34°C° 0 mm 3 mps 754 mmHg 16%
    15:00 +34°C° 0 mm 3 mps 754 mmHg 18%
    16:00 +34°C° 0 mm 3 mps 753 mmHg 20%
    17:00 +29°C° 0 mm 3 mps 753 mmHg 31%
    18:00 +25°C° 0 mm 2 mps 754 mmHg 42%
    19:00 +20°C° 0 mm 2 mps 754 mmHg 53%
    20:00 +20°C° 0 mm 1 mps 754 mmHg 54%
    21:00 +19°C° 0 mm 1 mps 754 mmHg 56%
    22:00 +16°C° 0 mm 0 mps 755 mmHg 57%
    23:00 +18°C° 0 mm 1 mps 755 mmHg 53%

    Day after tomorrow, 21 February, Friday

    Time Temperature Precipitation Wind Pressure Humidity
    00:00 +18°C° 0 mm 1 mps 754 mmHg 49%
    01:00 +16°C° 0 mm 1 mps 754 mmHg 46%
    08:00 +23°C° 0 mm 2 mps 755 mmHg 29%
    09:00 +26°C° 0 mm 2 mps 755 mmHg 23%
    10:00 +30°C° 0 mm 3 mps 755 mmHg 18%
    11:00 +32°C° 0 mm 2 mps 755 mmHg 16%
    12:00 +35°C° 0 mm 2 mps 755 mmHg 15%
    13:00 +37°C° 0 mm 2 mps 755 mmHg 13%
    14:00 +37°C° 0 mm 2 mps 755 mmHg 14%
    15:00 +37°C° 0 mm 2 mps 754 mmHg 15%
    16:00 +36°C° 0 mm 2 mps 754 mmHg 16%
    17:00 +31°C° 0 mm 2 mps 754 mmHg 24%
    18:00 +27°C° 0 mm 2 mps 754 mmHg 32%
    19:00 +23°C° 0 mm 1 mps 755 mmHg 40%
    20:00 +21°C° 0 mm 1 mps 755 mmHg 42%
    21:00 +20°C° 0 mm 1 mps 755 mmHg 44%
    22:00 +17°C° 0 mm 0 mps 755 mmHg 46%
    23:00 +18°C° 0 mm 1 mps 755 mmHg 44%

    22 February, Saturday

    Time Temperature Precipitation Wind Pressure Humidity
    00:00 +18°C° 0 mm 1 mps 755 mmHg 43%
    01:00 +18°C° 0 mm 1 mps 755 mmHg 42%
    02:00 +16°C° 0 mm 1 mps 755 mmHg 42%
    03:00 +16°C° 0 mm 1 mps 755 mmHg 42%
    04:00 +15°C° 0 mm 1 mps 755 mmHg 42%
    05:00 +16°C° 0 mm 1 mps 756 mmHg 41%
    06:00 +18°C° 0 mm 1 mps 756 mmHg 39%
    07:00 +19°C° 0 mm 1 mps 756 mmHg 38%
    08:00 +23°C° 0 mm 1 mps 756 mmHg 32%
    09:00 +27°C° 0 mm 1 mps 756 mmHg 26%
    10:00 +31°C° 0 mm 1 mps 756 mmHg 19%
    11:00 +32°C° 0 mm 1 mps 755 mmHg 19%
    12:00 +34°C° 0 mm 2 mps 755 mmHg 18%
    13:00 +35°C° 0 mm 2 mps 755 mmHg 17%
    14:00 +33°C° 0 mm 3 mps 755 mmHg 24%
    15:00 +30°C° 0 mm 3 mps 754 mmHg 31%
    16:00 +27°C° 0 mm 4 mps 754 mmHg 38%
    17:00 +25°C° 0 mm 3 mps 754 mmHg 48%
    18:00 +21°C° 0 mm 2 mps 755 mmHg 59%
    19:00 +18°C° 0 mm 2 mps 755 mmHg 70%
    20:00 +18°C° 0 mm 1 mps 755 mmHg 75%
    21:00 +15°C° 0 mm 1 mps 755 mmHg 80%
    22:00 +14°C° 0 mm 1 mps 755 mmHg 85%
    23:00 +14°C° 0 mm 1 mps 755 mmHg 87%

    23 February, Sunday

    Time Temperature Precipitation Wind Pressure Humidity
    00:00 +13°C° 0 mm 1 mps 755 mmHg 89%
    01:00 +13°C° 0 mm 1 mps 756 mmHg 91%
    02:00 +13°C° 0 mm 1 mps 755 mmHg 93%
    03:00 +12°C° 0 mm 0 mps 755 mmHg 94%
    04:00 +11°C° 0 mm 0 mps 755 mmHg 96%
    05:00 +12°C° 0 mm 0 mps 756 mmHg 92%
    06:00 +13°C° 0 mm 0 mps 756 mmHg 89%
    07:00 +15°C° 0 mm 1 mps 756 mmHg 85%
    08:00 +19°C° 0 mm 1 mps 756 mmHg 71%
    09:00 +22°C° 0 mm 1 mps 756 mmHg 57%
    10:00 +25°C° 0 mm 1 mps 756 mmHg 43%
    11:00 +26°C° 0 mm 2 mps 756 mmHg 39%
    12:00 +27°C° 0 mm 3 mps 756 mmHg 35%
    13:00 +28°C° 0 mm 3 mps 756 mmHg 31%
    14:00 +26°C° 0 mm 4 mps 756 mmHg 38%
    15:00 +25°C° 0 mm 4 mps 756 mmHg 45%
    16:00 +22°C° 0 mm 4 mps 755 mmHg 51%
    17:00 +19°C° 0 mm 4 mps 756 mmHg 61%
    18:00 +17°C° 0 mm 3 mps 756 mmHg 70%
    19:00 +14°C° 0 mm 3 mps 756 mmHg 79%
    20:00 +14°C° 0 mm 2 mps 757 mmHg 83%
    21:00 +13°C° 0 mm 2 mps 757 mmHg 87%
    22:00 +12°C° 0 mm 1 mps 758 mmHg 91%
    23:00 +11°C° 0 mm 1 mps 757 mmHg 93%

    24 February, Monday

    Time Temperature Precipitation Wind Pressure Humidity
    00:00 +11°C° 0 mm 1 mps 757 mmHg 95%
    01:00 +10°C° 0 mm 0 mps 757 mmHg 97%
    02:00 +9°C° 0 mm 0 mps 757 mmHg 97%
    03:00 +9°C° 0 mm 0 mps 758 mmHg 97%
    04:00 +9°C° 0 mm 0 mps 758 mmHg 97%
    05:00 +10°C° 0 mm 0 mps 758 mmHg 92%
    06:00 +11°C° 0 mm 0 mps 758 mmHg 87%
    07:00 +12°C° 0 mm 0 mps 758 mmHg 81%
    08:00 +15°C° 0 mm 1 mps 758 mmHg 68%
    09:00 +19°C° 0 mm 1 mps 758 mmHg 54%
    10:00 +21°C° 0 mm 2 mps 758 mmHg 41%
    11:00 +23°C° 0 mm 2 mps 758 mmHg 39%
    12:00 +24°C° 0 mm 3 mps 758 mmHg 37%
    13:00 +24°C° 0 mm 3 mps 758 mmHg 35%
    14:00 +22°C° 0 mm 4 mps 757 mmHg 40%
    15:00 +21°C° 0 mm 4 mps 757 mmHg 46%
    16:00 +20°C° 0 mm 5 mps 757 mmHg 51%
    17:00 +18°C° 0 mm 4 mps 757 mmHg 61%
    18:00 +16°C° 0 mm 3 mps 757 mmHg 71%
    19:00 +14°C° 0 mm 2 mps 757 mmHg 81%
    20:00 +13°C° 0 mm 2 mps 758 mmHg 85%
    21:00 +13°C° 0 mm 2 mps 758 mmHg 90%
    22:00 +12°C° 0 mm 1 mps 758 mmHg 94%
    23:00 +11°C° 0 mm 1 mps 758 mmHg 95%
    Show more